Temperature
11 10 10 9 9 9 9 9 9 8 8 8 7 7 7 7 6 6 6 6 6 6 6 6 6 6 6 6 7 8 9 10 10 10 10 10 10 10 10 11 11 11 11
12 10 10 9 9 9 9 9 9 9 8 8 7 7 7 7 6 6 6 6 6 6 6 5 5 5 5 6 6 7 9 9 10 10 10 10 9 8 9 10 10 10 10
11 10 9 9 9 9 9 9 9 9 8 8 7 7 7 7 6 6 6 5 5 5 5 5 5 5 5 5 5 7 8 9 9 9 9 9 8 7 7 7 8 9 9
11 10 9 9 9 9 9 9 9 9 8 8 8 7 7 7 6 6 6 5 5 5 5 5 5 4 4 5 5 6 8 8 9 9 9 8 8 6 6 6 6 7 7
10 10 9 9 9 9 9 9 9 9 9 8 8 8 7 7 6 6 6 5 5 5 5 5 5 5 5 5 5 6 7 8 8 8 8 8 7 5 5 5 5 6 6
11 9 9 9 9 9 9 9 9 9 9 9 8 8 7 7 7 6 6 6 5 5 5 5 5 5 5 5 6 6 7 7 7 8 8 7 7 5 5 5 5 5 5
11 9 9 9 9 9 9 9 9 9 9 9 9 8 8 7 7 6 6 6 5 5 5 5 5 5 5 6 6 6 7 7 7 7 7 7 7 6 5 5 5 5 5
11 10 9 9 9 9 9 9 9 9 9 9 9 8 8 7 7 6 6 5 5 5 5 5 5 6 6 6 6 6 6 6 6 6 6 6 6 5 4 4 4 4 4
10 10 9 9 9 9 9 9 9 9 9 8 8 8 7 7 7 6 6 5 5 5 5 5 5 5 5 5 6 6 5 5 5 5 5 5 5 4 3 3 3 3 3
10 10 9 9 8 9 9 9 9 9 8 8 8 8 7 7 6 6 5 5 5 5 5 5 5 5 5 5 5 5 5 5 4 4 4 4 4 4 3 3 3 3 2
11 10 10 9 9 9 8 8 8 8 8 8 8 7 7 6 6 6 6 5 5 5 5 5 5 5 5 5 4 4 4 4 4 3 3 3 3 3 2 2 2 2 2
13 11 10 10 9 9 8 8 8 8 8 7 7 7 7 6 6 6 5 5 5 5 5 5 5 4 4 4 4 4 3 3 3 2 2 2 2 2 1 1 1 0 0
13 12 11 10 10 9 8 8 8 8 8 7 7 7 6 6 6 6 5 5 5 5 4 4 4 4 4 4 3 3 2 2 2 2 1 1 1 1 -0 -1 -1 -2 -2
13 13 12 11 10 9 8 8 8 8 7 7 7 7 6 6 6 6 5 5 5 4 4 4 4 3 3 3 3 2 2 1 1 1 1 0 -0 -1 -1 -2 -3 -3 -3
14 13 12 11 11 10 9 8 8 8 8 7 7 6 6 6 6 5 5 5 4 4 4 3 3 3 3 2 2 2 1 1 0 -0 -0 -1 -1 -2 -2 -3 -4 -4 -4
14 13 13 12 11 10 9 9 8 8 8 7 7 6 6 6 6 5 5 5 4 4 3 3 3 2 2 2 2 1 1 0 -0 -1 -1 -2 -2 -2 -3 -4 -5 -5 -5
15 14 13 12 11 10 10 9 8 8 7 7 7 6 6 6 6 5 5 4 4 4 3 3 2 2 2 2 1 1 1 0 -0 -1 -2 -2 -3 -3 -4 -4 -5 -6 -6
15 14 14 13 12 11 10 9 8 8 8 7 7 7 6 6 5 5 5 4 4 3 3 2 2 2 1 1 1 0 0 -0 -0 -1 -2 -3 -3 -4 -5 -5 -6 -6 -6
15 15 14 13 12 12 11 10 9 8 8 7 7 7 6 6 6 5 5 4 4 3 3 2 2 1 1 0 0 0 -0 -0 -1 -1 -2 -3 -3 -4 -5 -5 -6 -6 -7
16 15 14 13 13 12 11 10 9 9 8 8 7 7 7 6 6 5 5 4 4 3 3 2 1 1 1 -0 -1 -1 -1 -1 -1 -1 -2 -3 -3 -4 -5 -5 -6 -6 -7
16 15 15 14 13 12 11 11 10 10 10 9 8 8 7 7 6 5 5 4 4 3 3 2 1 1 0 -1 -2 -3 -3 -2 -1 -2 -2 -3 -3 -4 -4 -5 -6 -6 -7
17 16 16 15 14 13 13 13 12 11 10 10 9 9 8 7 6 5 5 4 4 3 2 2 1 1 -0 -1 -3 -5 -4 -4 -4 -3 -3 -3 -3 -4 -4 -5 -6 -6 -7
17 17 17 16 15 15 14 13 11 10 10 10 10 10 9 8 7 6 5 4 4 3 3 2 1 0 -0 -2 -2 -4 -5 -4 -4 -5 -5 -4 -4 -4 -5 -6 -6 -7 -7
18 17 17 16 16 15 14 13 13 13 13 13 12 11 10 9 8 7 6 5 4 3 3 2 1 0 -0 -1 -3 -3 -4 -5 -7 -6 -5 -6 -6 -6 -6 -7 -7 -7 -8
18 18 17 17 16 16 15 15 14 13 14 12 11 11 11 10 9 8 7 5 4 4 3 2 1 1 -0 -1 -2 -3 -4 -6 -7 -9 -7 -6 -6 -6 -6 -7 -7 -7 -8
18 18 17 17 17 16 16 15 15 15 14 13 12 12 11 11 10 9 7 6 5 4 3 2 1 1 -0 -1 -2 -3 -4 -6 -6 -7 -7 -7 -6 -6 -6 -7 -7 -7 -7
Wind_Speed
13 16 14 14 12 11 10 9 9 10 10 11 12 13 14 15 15 16 17 18 19 20 21 22 22 22 23 23 24 25 25 26 26 25 24 24 26 27 27 28 26 23 27
18 18 17 15 13 12 10 10 9 10 10 11 11 12 13 14 14 15 16 17 18 19 20 20 21 21 21 22 22 23 23 23 23 23 22 21 23 26 26 27 27 24 27
19 18 18 16 14 13 11 10 10 9 10 10 11 11 12 13 13 14 15 16 16 17 18 19 19 19 20 20 21 21 21 21 20 19 19 18 19 25 25 25 26 26 26
18 17 17 17 15 13 12 11 10 9 9 9 10 10 11 12 12 13 14 14 15 16 16 17 17 18 18 19 20 20 20 19 18 17 15 16 17 23 25 25 25 25 25
17 17 17 18 16 14 13 11 10 9 9 9 9 9 10 11 11 12 12 13 14 14 15 15 16 17 17 18 19 19 19 18 16 16 15 15 16 22 24 24 24 24 25
18 17 18 18 17 15 13 12 11 10 9 9 9 9 9 10 10 10 11 11 12 12 13 14 15 15 16 17 17 18 19 17 14 14 15 15 17 23 24 24 24 24 25
18 17 17 19 17 16 14 13 11 10 10 9 9 8 8 9 9 9 9 10 10 11 11 12 13 14 15 16 16 17 18 17 14 14 14 15 20 24 24 24 24 24 24
18 17 15 19 18 16 15 14 13 11 10 10 9 8 8 8 8 8 8 8 8 9 10 11 12 12 13 14 15 16 17 17 13 14 14 15 22 24 24 24 24 24 24
17 17 16 18 18 17 16 15 14 12 11 11 10 9 8 7 7 7 7 7 7 7 8 9 10 11 12 13 14 15 15 15 14 13 14 15 22 23 23 24 24 24 24
16 17 17 17 17 17 17 16 15 14 13 12 11 10 9 8 7 6 5 6 6 6 7 8 9 9 10 11 12 13 13 11 13 12 12 16 22 23 23 24 24 25 25
17 17 18 18 17 16 16 16 16 15 14 13 12 11 9 7 6 5 5 5 5 5 5 6 7 7 6 8 10 11 9 10 11 10 10 17 21 22 23 24 24 25 25
22 21 20 20 19 17 15 15 14 14 14 14 12 12 9 7 6 6 6 4 4 4 3 4 4 4 5 6 7 8 8 10 9 9 10 17 19 21 22 23 23 24 25
22 21 20 21 20 19 16 15 13 13 13 14 14 13 10 9 8 7 6 6 5 4 2 1 1 3 4 5 6 7 8 8 8 9 10 15 18 20 21 21 22 23 23
22 23 21 23 21 21 18 16 15 14 13 13 14 15 12 10 9 9 8 7 6 5 3 2 1 2 3 4 5 6 7 7 8 9 10 14 17 18 20 20 21 22 23
22 23 23 23 23 21 19 16 16 16 15 16 15 16 15 12 11 10 9 8 8 6 6 4 3 2 3 4 5 6 7 9 10 10 11 13 16 17 19 19 20 21 22
24 23 23 23 25 23 20 18 17 17 16 16 16 17 18 15 13 11 10 10 9 8 7 5 4 4 4 5 6 7 9 10 11 11 12 13 14 16 17 18 19 20 22
24 23 24 23 25 24 22 21 18 17 17 17 17 19 20 18 15 14 11 11 10 9 8 7 6 5 5 6 7 9 9 11 12 13 13 13 13 14 16 17 18 19 21
22 23 23 20 23 24 22 21 19 18 18 18 18 18 21 21 18 16 13 12 12 11 9 8 7 6 6 6 7 8 9 11 13 14 14 13 13 13 14 16 18 19 21
23 23 23 24 24 23 23 21 20 19 19 19 19 19 21 22 21 18 15 13 14 12 10 9 7 7 7 7 7 8 10 11 13 13 14 14 14 14 14 15 18 20 21
21 22 22 23 23 22 19 17 16 17 18 20 20 20 22 22 23 21 16 16 15 12 10 9 9 8 7 7 8 10 11 12 13 13 13 13 14 15 15 16 16 16 19
21 22 23 23 23 20 17 18 18 18 16 16 20 23 24 23 24 22 17 17 16 13 12 12 10 10 9 7 7 8 10 12 12 10 11 12 13 15 15 16 16 16 16
23 23 24 24 24 24 20 18 16 16 14 16 18 22 25 26 25 23 22 17 17 13 14 14 12 9 8 8 7 6 6 6 9 9 10 10 12 14 14 16 17 18 18
22 24 22 25 24 24 23 16 13 13 12 15 18 18 24 27 27 25 25 21 18 16 14 16 15 15 11 9 9 7 6 5 5 7 11 11 11 11 13 15 18 19 21
20 19 21 22 23 23 22 21 22 19 19 19 17 17 20 26 27 28 26 24 20 17 16 16 16 14 13 11 9 10 11 8 6 6 6 9 12 13 14 14 17 19 21
16 17 18 20 21 22 23 24 24 23 21 16 16 19 20 21 26 28 27 24 21 17 18 17 16 16 14 13 11 9 10 11 12 10 10 11 11 12 13 14 15 18 20
12 15 16 19 21 22 23 25 26 27 24 21 20 19 18 16 18 25 26 24 22 18 19 18 17 18 15 15 13 11 11 9 9 11 13 14 14 13 14 14 14 17 19
Wind_Direction
163 161 160 154 145 137 125 113 101 91 83 77 73 70 67 63 60 57 56 54 52 51 50 49 47 46 45 47 48 48 43 38 35 33 31 28 26 27 28 25 23 21 19
157 160 161 156 149 141 132 120 109 99 90 83 77 73 70 65 62 59 57 55 53 51 50 49 47 46 45 46 47 47 44 39 37 34 32 28 24 25 26 24 21 18 16
155 159 160 157 152 146 139 129 118 107 98 90 84 78 74 69 64 62 58 56 54 52 51 49 47 45 44 44 44 46 43 39 37 35 33 28 21 21 24 22 19 17 14
158 161 160 157 156 152 146 138 128 117 107 98 90 84 79 73 67 64 60 57 55 53 51 49 46 43 42 42 41 41 41 37 36 35 33 27 19 17 20 19 17 14 12
162 163 159 161 160 157 152 145 137 127 117 107 98 90 85 79 71 67 63 59 56 53 51 48 45 41 40 39 38 38 37 34 31 33 31 24 16 13 16 16 13 11 9
166 166 164 166 165 162 158 153 145 138 128 118 108 99 92 85 77 71 66 61 57 53 50 47 45 41 38 37 36 34 32 29 27 28 25 20 13 9 11 11 10 7 5
169 170 169 170 170 168 166 161 155 149 139 129 119 109 101 93 84 77 73 65 59 55 50 47 44 39 36 34 33 31 28 25 25 24 19 15 8 5 6 6 5 3 1
173 174 175 176 177 175 173 169 165 159 151 141 130 121 111 102 94 84 79 72 64 57 51 48 44 39 33 31 29 27 23 20 18 18 15 10 4 0 0 360 359 357 355
180 181 182 182 181 181 180 178 174 168 161 152 142 132 123 114 106 93 86 81 70 60 55 50 45 41 32 29 27 23 18 16 15 12 8 4 357 355 354 354 352 351 349
188 190 189 188 186 185 185 184 181 176 171 163 153 144 135 126 119 110 104 91 80 65 57 51 46 41 33 28 24 20 14 10 10 6 3 356 351 349 348 347 346 345 343
197 197 196 193 190 189 187 184 185 183 180 173 166 158 154 155 150 144 116 105 92 73 60 52 45 36 29 27 22 15 11 6 359 357 355 349 346 343 342 341 339 338 337
199 199 198 198 194 192 189 188 190 188 184 185 179 173 175 173 171 163 139 129 115 98 80 56 43 27 12 9 11 7 2 354 351 347 343 343 340 337 334 333 331 330 329
200 198 200 200 198 196 193 192 191 190 187 190 190 186 184 181 180 184 181 172 170 171 170 130 347 13 8 4 354 354 350 345 339 333 330 334 331 328 326 324 322 322 321
202 202 201 200 201 201 200 198 198 195 194 194 195 194 190 190 193 194 198 195 196 198 201 218 279 337 338 340 339 337 334 330 324 319 315 319 319 317 315 314 314 314 315
206 205 203 202 202 202 204 204 204 204 201 200 197 198 198 196 198 198 200 200 204 204 208 216 236 274 297 310 314 316 314 310 306 303 300 302 304 304 305 306 307 309 310
208 207 204 203 204 203 205 207 207 207 205 204 202 201 201 203 202 201 203 204 206 207 211 219 233 258 277 288 292 295 296 296 292 291 289 291 290 291 294 297 299 303 305
209 207 205 204 205 206 208 210 210 209 206 206 205 204 203 205 206 204 206 206 207 206 209 218 225 244 261 272 277 282 285 284 282 282 281 280 281 280 281 285 290 295 298
210 207 206 203 205 207 209 210 211 211 209 210 208 206 205 206 207 207 209 210 206 205 210 217 226 239 248 260 271 276 276 276 276 276 274 270 270 271 273 275 281 287 292
210 206 205 204 205 207 208 210 213 213 213 213 210 208 207 206 207 209 212 211 205 207 211 215 222 232 244 253 265 273 274 272 273 272 266 263 261 262 267 272 275 280 285
210 207 206 205 207 206 207 211 214 217 218 217 214 212 208 207 207 209 213 212 207 209 212 213 220 223 238 250 264 269 269 269 269 265 261 258 257 260 264 269 273 276 278
209 207 206 205 205 203 203 207 210 215 216 217 218 216 212 210 207 209 211 211 209 213 214 215 219 226 229 232 254 265 262 257 258 255 253 255 259 263 265 267 270 274 279
209 208 208 208 205 204 206 207 211 216 220 220 219 220 216 213 210 209 211 211 209 213 216 215 215 222 226 218 231 264 278 254 231 244 252 257 264 268 268 269 272 275 279
213 211 210 209 208 207 206 206 208 215 223 220 219 219 218 215 213 211 212 212 211 211 214 213 211 216 223 216 219 232 254 275 284 246 248 256 263 267 270 273 274 276 278
221 217 215 213 211 209 205 207 206 209 216 219 218 218 217 215 215 213 212 212 212 211 215 213 212 215 220 226 220 225 234 252 266 284 252 248 255 263 267 270 273 275 277
226 220 219 217 215 211 209 211 213 221 226 226 221 221 219 215 216 215 213 212 212 212 214 212 210 212 215 222 224 223 230 239 238 248 272 277 271 268 270 273 275 276 277
228 219 217 218 219 214 212 214 217 223 225 225 223 221 219 217 215 215 213 213 212 211 211 211 210 212 214 219 225 228 230 234 238 245 262 275 281 282 281 278 276 275 275
Height
1584 1587 1589 1590 1591 1592 1593 1593 1592 1592 1592 1591 1590 1589 1588 1587 1585 1584 1583 1581 1580 1578 1576 1574 1572 1570 1568 1566 1563 1561 1560 1559 1558 1557 1556 1556 1555 1554 1553 1552 1552 1551 1550
1583 1585 1587 1589 1590 1591 1592 1592 1592 1592 1591 1591 1590 1589 1588 1586 1585 1584 1583 1581 1580 1578 1576 1574 1572 1570 1568 1566 1564 1561 1559 1558 1557 1556 1556 1555 1554 1554 1553 1552 1551 1550 1550
1581 1584 1586 1588 1589 1590 1591 1591 1591 1591 1591 1590 1589 1588 1587 1586 1585 1584 1582 1581 1579 1578 1576 1574 1572 1570 1568 1566 1564 1561 1559 1557 1556 1555 1554 1553 1553 1553 1552 1551 1550 1549 1549
1580 1583 1585 1586 1588 1589 1590 1590 1591 1591 1590 1589 1589 1588 1587 1585 1584 1583 1582 1580 1579 1577 1576 1574 1572 1570 1568 1566 1564 1561 1559 1558 1556 1554 1553 1552 1552 1552 1552 1550 1549 1548 1547
1578 1581 1583 1585 1586 1588 1589 1589 1590 1590 1589 1588 1588 1587 1586 1585 1584 1583 1581 1580 1578 1577 1575 1573 1571 1570 1568 1566 1564 1562 1560 1558 1556 1555 1554 1552 1551 1552 1551 1549 1548 1547 1545
1577 1580 1582 1583 1585 1586 1587 1588 1588 1588 1588 1588 1587 1586 1585 1584 1583 1582 1581 1579 1578 1576 1575 1573 1571 1569 1568 1566 1564 1562 1560 1559 1557 1556 1554 1553 1552 1551 1551 1549 1547 1546 1544
1575 1578 1580 1581 1583 1585 1586 1587 1587 1587 1587 1587 1586 1585 1584 1583 1582 1581 1580 1578 1577 1576 1574 1572 1571 1569 1567 1566 1564 1562 1561 1559 1558 1556 1555 1554 1552 1551 1550 1548 1547 1545 1544
1573 1576 1578 1579 1581 1583 1584 1585 1585 1585 1585 1585 1585 1584 1583 1582 1581 1580 1579 1577 1576 1575 1573 1571 1570 1569 1567 1566 1564 1562 1561 1559 1558 1556 1554 1553 1551 1550 1549 1547 1545 1544 1542
1571 1573 1575 1577 1579 1580 1581 1582 1583 1583 1583 1583 1583 1583 1582 1581 1580 1579 1577 1576 1575 1573 1572 1571 1569 1568 1566 1565 1563 1562 1560 1558 1557 1555 1554 1552 1550 1549 1547 1545 1543 1542 1540
1568 1570 1572 1575 1576 1578 1579 1580 1580 1581 1581 1581 1581 1581 1580 1579 1578 1577 1576 1575 1574 1572 1571 1570 1568 1567 1566 1564 1562 1560 1559 1557 1556 1554 1552 1550 1548 1547 1545 1543 1541 1539 1537
1563 1565 1568 1570 1572 1574 1576 1577 1578 1578 1578 1579 1578 1578 1578 1577 1576 1575 1574 1573 1572 1571 1570 1568 1567 1566 1564 1563 1561 1559 1557 1556 1554 1552 1550 1548 1546 1544 1542 1540 1538 1536 1534
1558 1560 1563 1565 1568 1570 1572 1573 1574 1575 1575 1575 1575 1575 1575 1574 1573 1573 1572 1571 1570 1569 1568 1567 1566 1564 1563 1561 1559 1557 1556 1554 1552 1550 1548 1546 1543 1541 1539 1537 1535 1533 1531
1554 1556 1558 1560 1563 1565 1567 1568 1570 1570 1571 1572 1572 1572 1571 1571 1571 1570 1569 1568 1568 1567 1565 1564 1563 1562 1561 1559 1557 1555 1553 1551 1549 1547 1545 1542 1540 1537 1535 1533 1531 1529 1528
1549 1551 1553 1555 1557 1559 1562 1563 1565 1565 1566 1567 1568 1568 1568 1568 1567 1567 1566 1565 1565 1564 1563 1562 1561 1559 1558 1556 1554 1552 1550 1548 1546 1543 1541 1538 1535 1533 1530 1529 1527 1525 1524
1543 1545 1547 1549 1551 1553 1556 1557 1559 1560 1561 1562 1563 1563 1564 1564 1563 1563 1563 1562 1561 1560 1559 1558 1557 1556 1555 1553 1551 1549 1547 1544 1541 1539 1536 1533 1530 1528 1525 1524 1522 1520 1519
1536 1539 1541 1543 1545 1547 1549 1551 1553 1555 1556 1557 1557 1558 1559 1559 1559 1559 1558 1558 1557 1556 1555 1554 1553 1552 1551 1549 1547 1545 1543 1540 1537 1534 1531 1528 1525 1523 1520 1518 1517 1515 1514
1530 1533 1534 1537 1539 1541 1543 1545 1547 1549 1550 1551 1552 1553 1553 1553 1553 1553 1553 1553 1552 1551 1551 1550 1549 1548 1546 1545 1543 1541 1538 1536 1533 1530 1526 1523 1521 1518 1515 1512 1511 1509 1508
1523 1525 1528 1530 1532 1534 1536 1538 1540 1542 1543 1545 1545 1546 1546 1547 1547 1547 1547 1547 1547 1546 1545 1545 1544 1542 1541 1540 1538 1536 1533 1531 1528 1525 1522 1519 1516 1513 1510 1507 1505 1503 1502
1515 1518 1520 1522 1525 1527 1530 1532 1533 1535 1536 1537 1538 1538 1539 1540 1541 1541 1541 1541 1540 1540 1539 1539 1538 1537 1535 1534 1532 1530 1528 1525 1523 1520 1517 1514 1511 1507 1504 1502 1499 1497 1495
1508 1510 1512 1515 1517 1520 1522 1524 1525 1526 1527 1528 1528 1529 1531 1532 1533 1534 1534 1534 1533 1533 1533 1532 1532 1530 1529 1527 1525 1524 1522 1519 1517 1514 1511 1509 1505 1502 1499 1496 1494 1491 1488
1499 1501 1503 1506 1509 1511 1511 1512 1513 1514 1516 1518 1519 1520 1522 1523 1525 1525 1526 1526 1526 1526 1526 1526 1525 1524 1522 1520 1519 1516 1514 1512 1510 1508 1506 1503 1500 1497 1494 1491 1488 1485 1482
1490 1493 1495 1497 1500 1501 1502 1504 1506 1508 1508 1509 1510 1511 1513 1514 1515 1516 1517 1517 1518 1518 1518 1518 1518 1517 1516 1514 1513 1512 1510 1508 1503 1502 1500 1497 1494 1491 1488 1485 1482 1479 1476
1483 1485 1487 1489 1492 1493 1495 1497 1498 1499 1498 1499 1499 1500 1502 1503 1504 1505 1507 1508 1508 1509 1509 1509 1509 1509 1509 1508 1506 1506 1505 1502 1499 1495 1493 1490 1488 1485 1481 1478 1475 1472 1469
1477 1480 1481 1483 1485 1486 1488 1487 1487 1487 1486 1487 1490 1491 1492 1493 1494 1495 1497 1498 1499 1499 1500 1500 1500 1501 1501 1500 1499 1497 1497 1495 1493 1489 1487 1484 1481 1478 1475 1472 1468 1465 1462
1472 1473 1475 1476 1477 1478 1478 1479 1479 1478 1479 1481 1481 1481 1481 1481 1483 1484 1485 1487 1488 1489 1490 1491 1491 1491 1492 1492 1492 1490 1489 1488 1486 1483 1479 1478 1476 1473 1470 1466 1462 1458 1454
1467 1467 1467 1468 1468 1469 1469 1469 1469 1469 1470 1471 1471 1470 1470 1470 1470 1471 1473 1474 1476 1477 1479 1481 1481 1482 1482 1483 1483 1482 1481 1481 1479 1477 1473 1469 1467 1465 1462 1458 1454 1451 1447